[keps] orb10328.2l.amsat
Ray Hoad
ray.hoad at mypbmail.com
Wed Nov 24 07:11:47 PST 2010
SB KEPS @ AMSAT $ORB10328.N
2Line Orbital Elements 10328.AMSAT
HR AMSAT ORBITAL ELEMENTS FOR AMATEUR SATELLITES IN NASA FORMAT
FROM WA5QGD FORT WORTH,TX November 24, 2010
BID: ORB10328.N
DECODE 2-LINE ELSETS WITH THE FOLLOWING KEY:
1 AAAAAU 00 0 0 BBBBB.BBBBBBBB .CCCCCCCC 00000-0 00000-0 0 DDDZ
2 AAAAA EEE.EEEE FFF.FFFF GGGGGGG HHH.HHHH III.IIII JJ.JJJJJJJJKKKKKZ
KEY: A-CATALOGNUM B-EPOCHTIME C-DECAY D-ELSETNUM E-INCLINATION F-RAAN
G-ECCENTRICITY H-ARGPERIGEE I-MNANOM J-MNMOTION K-ORBITNUM Z-CHECKSUM
TO ALL RADIO AMATEURS BT
AO-07
1 07530U 74089B 10327.89485885 -.00000027 00000-0 10000-3 0 09366
2 07530 101.3972 337.5376 0011788 322.1168 037.9073 12.53580253648463
FO-29
1 24278U 96046B 10327.91500612 -.00000013 00000-0 19520-4 0 04648
2 24278 098.5186 135.0181 0351445 069.5251 294.3260 13.52954595704703
SO-33
1 25509U 98061B 10326.42688153 .00000002 00000-0 -14207-4 0 08433
2 25509 031.4351 333.6565 0354238 233.4923 123.2602 14.28339239630696
RS-22
1 27939U 03042A 10328.18434683 .00000185 00000-0 44394-4 0 7518
2 27939 097.8679 186.6740 0012504 275.1789 084.7971 14.63480625382357
VO-52
1 28650U 05017B 10327.90172861 .00000410 00000-0 57957-4 0 06552
2 28650 097.6723 014.9272 0028210 113.2249 247.1979 14.81858077300345
SO-67
1 35870U 09049F 10328.04254510 .00001083 00000-0 51561-4 0 3156
2 35870 097.3116 012.7763 0001333 251.4644 197.9200 15.21200028 65756
HO-68
1 36122U 09072B 10328.16917970 -.00000045 00000-0 00000 0 0 8736
2 36122 100.4492 026.8270 0007402 335.0933 024.9817 13.16282742 45264
UO-11
1 14781U 84021B 10327.73189187 .00000471 00000-0 69509-4 0 04016
2 14781 098.0345 019.7697 0010176 083.9534 276.2833 14.79863362435404
AO-16
1 20439U 90005D 10327.86205807 .00000032 00000-0 27704-4 0 00520
2 20439 098.3555 279.6621 0011821 054.8824 305.3467 14.31884432088239
LO-19
1 20442U 90005G 10327.83425363 -.00000006 00000-0 13215-4 0 9604
2 20442 098.3181 284.7967 0012669 049.7956 310.4350 14.32113195 88407
AO-27
1 22825U 93061C 10327.83226848 -.00000032 00000-0 44153-5 0 06830
2 22825 098.5062 271.7998 0008630 154.0368 206.1247 14.29316736894856
IO-26
1 22826U 93061D 10327.65907085 .00000024 00000-0 26244-4 0 04210
2 22826 098.4997 272.1747 0009330 149.8880 210.2838 14.29575256894945
GO-32
1 25397U 98043D 10327.55299491 .00000013 00000-0 23761-4 0 3392
2 25397 098.3163 326.2570 0001874 127.3099 232.8274 14.23190291642714
NO-44
1 26931U 01043C 10327.57296607 -.00000031 00000-0 20048-4 0 06152
2 26931 067.0498 153.3182 0005844 273.3374 086.7048 14.29622336477537
SO-50
1 27607U 02058C 10327.91373191 .00000174 00000-0 49144-4 0 03266
2 27607 064.5589 231.3384 0048528 013.4249 346.8100 14.71610392425888
CO-55
1 27844U 03031E 10327.53989407 .00000143 00000-0 86406-4 0 9840
2 27844 098.7094 334.2328 0010597 072.2690 287.9646 14.20748882383715
CO-57
1 27848U 03031J 10327.52248466 .00000108 00000-0 70517-4 0 09348
2 27848 098.7142 333.3430 0010501 076.1773 284.0556 14.20536903383668
AO-51
1 28375U 04025K 10327.95639905 .00000068 00000-0 33165-4 0 08316
2 28375 098.0755 312.4781 0084298 333.3472 026.3398 14.40711585336518
CP3
1 31129U 07012N 10327.57515300 .00000018 00000-0 14383-4 0 07311
2 31129 097.9224 358.4751 0103465 099.4149 261.8751 14.52338417190995
CO-65
1 32785U 08021C 10327.33455683 .00000228 00000-0 35540-4 0 08459
2 32785 097.8785 029.8998 0015785 124.4048 235.8670 14.81770125139050
KKS-1
1 33493U 09002B 10328.03027986 .00000757 00000-0 10404-3 0 657
2 33493 098.1027 089.0740 0019496 347.9806 012.0913 14.81212096 99148
SOHLA-1
1 33496U 09002E 10327.83333159 .00000133 00000-0 30618-4 0 02637
2 33496 098.0706 074.9448 0007570 060.5549 299.6407 14.69535900098322
TISAT-1
1 36799U 10035E 10328.33558963 .00000538 00000-0 77865-4 0 3402
2 36799 098.1308 029.3321 0014772 214.5941 145.4327 14.80241360 20009
STUDSAT
1 36801U 10035G 10327.90917001 .00001496 00000-0 20557-3 0 01014
2 36801 098.1333 028.7889 0013470 205.6161 154.4379 14.79827585019936
NOAA-10
1 16969U 86073A 10327.62142431 .00000012 00000-0 22726-4 0 02844
2 16969 098.6415 354.9771 0013017 104.5831 255.6808 14.27435027258325
NOAA-11
1 19531U 88089A 10327.70087695 -.00000016 00000-0 14367-4 0 02948
2 19531 098.7657 053.9740 0012212 055.3149 304.9182 14.14943317143693
NOAA-12
1 21263U 91032A 10327.80687379 .00000095 00000-0 58947-4 0 07876
2 21263 098.7613 340.9197 0013321 064.7765 295.4788 14.25669363015147
MET-3/5
1 21655U 91056A 10327.86661151 .00000051 00000-0 10000-3 0 9717
2 21655 082.5574 195.8194 0012804 314.2253 045.7784 13.17023623926699
MET-2/21
1 22782U 93055A 10327.88726832 .00000077 00000-0 56187-4 0 09467
2 22782 082.5446 125.7612 0021338 317.6244 042.3276 13.83650529870168
OKEAN-4
1 23317U 94066A 10327.84207882 .00000329 00000-0 37418-4 0 4012
2 23317 082.5417 204.8333 0023863 076.4640 283.9244 14.82898707870110
NOAA-14
1 23455U 94089A 10327.80171327 .00000017 00000-0 32441-4 0 02765
2 23455 098.8690 047.3467 0009851 138.6721 221.5190 14.13801028820056
NOAA-15
1 25338U 98030A 10327.98051662 .00000140 00000-0 78618-4 0 06054
2 25338 098.6354 312.1766 0010323 334.9344 025.1322 14.24868533651509
RESURS
1 25394U 98043A 10327.54478824 .00000040 00000-0 35071-4 0 06601
2 25394 098.3004 336.9147 0002203 097.0610 263.0815 14.24216847643032
FENGYUN1
1 25730U 99025A 10327.87958344 .00001361 00000-0 81792-3 0 1918
2 25730 098.8006 288.7970 0019732 172.4211 187.7277 14.08429060594169
OKEAN-0
1 25860U 99039A 10327.84385089 .00000174 00000-0 33983-4 0 01599
2 25860 097.8550 295.3129 0000749 048.5592 311.5686 14.73686132610414
NOAA-16
1 26536U 00055A 10327.95201739 -.00000001 00000-0 24685-4 0 00825
2 26536 099.1613 349.1230 0009930 246.5341 113.4761 14.12586807524388
NOAA-17
1 27453U 02032A 10327.61674709 -.00000086 00000-0 -19248-4 0 00727
2 27453 098.4114 011.4690 0012173 035.9206 324.2799 14.24210920437397
NOAA-18
1 28654U 05018A 10327.66470591 -.00000116 00000-0 -39171-4 0 05621
2 28654 098.9702 273.6080 0014070 327.2907 032.7381 14.11410020283933
NOAA-19
1 33591U 09005A 10327.61667105 .00000177 00000-0 12259-3 0 07568
2 33591 098.8059 266.4621 0013759 195.1385 164.9377 14.11104475092394
HUBBLE
1 20580U 90037B 10326.29371627 .00000743 00000-0 43917-4 0 06790
2 20580 028.4707 287.6103 0003590 084.5178 275.5728 15.01100982928532
ISS
1 25544U 98067A 10328.53341692 .00013805 00000-0 10297-3 0 3316
2 25544 051.6429 129.9864 0006958 237.2523 192.1606 15.73062245688697
CO-58
1 28895U 05043F 10327.87898337 .00000496 00000-0 11252-3 0 07351
2 28895 097.9928 206.8567 0018549 142.0022 218.2536 14.59970170270289
FALCON
1 30776U 07006E 10327.88742926 .00000975 00000-0 72171-4 0 9640
2 30776 035.4317 154.5230 0000164 311.9690 048.1013 15.03968383204119
MAST
1 31126U 07012K 10327.57471239 .00000183 00000-0 51377-4 0 185
2 31126 097.9194 001.1892 0095462 090.3631 270.8530 14.53646100191212
CAPE1
1 31130U 07012P 10327.57308330 .00000185 00000-0 52668-4 0 389
2 31130 097.9207 358.2933 0104009 099.9501 261.3390 14.52255483190793
COMPASS
1 32787U 08021E 10327.17695264 .00000448 00000-0 62980-4 0 08388
2 32787 097.8771 029.5971 0016691 125.9473 234.3251 14.82053188139042
AAUSAT2
1 32788U 08021F 10327.63670055 .00000724 00000-0 97187-4 0 08284
2 32788 097.8775 030.2151 0016273 124.9243 235.3473 14.82210091139120
DO-64
1 32789U 08021G 10327.69300256 .00001333 00000-0 17246-3 0 08468
2 32789 097.8848 030.9415 0016442 123.7199 236.5595 14.82452962139131
CO-66
1 32791U 08021J 10327.15585530 .00000766 00000-0 10341-3 0 08291
2 32791 097.8791 029.5691 0016850 124.2363 236.0467 14.81810119138990
RS-30
1 32953U 08025A 10327.98100920 .00000010 00000-0 00000 0 0 2408
2 32953 082.4992 290.3101 0019845 110.9353 249.3847 12.43009393113593
TACSAT-3
1 35001U 09028A 10327.49477394 .00007578 00000-0 16749-3 0 04507
2 35001 040.4562 335.9646 0020986 118.6184 241.6746 15.43740116085243
PHARMSAT
1 35002U 09028B 10327.40364120 .00006584 00000-0 14450-3 0 04100
2 35002 040.4710 334.0792 0023370 121.3079 239.0027 15.44052169085254
HAWKSAT1
1 35003U 09028C 10327.41830917 .00016400 00000-0 29255-3 0 4459
2 35003 040.4616 322.8696 0022479 146.8516 213.3717 15.49362289 85382
CP6
1 35004U 09028D 10326.39267207 .00021731 00000-0 36342-3 0 04494
2 35004 040.4635 326.4908 0022131 146.2049 214.0189 15.51054264085240
AEROCUB3
1 35005U 09028E 10327.29876736 .00195324 00000-0 12807-2 0 05353
2 35005 040.4691 303.2459 0025150 180.7929 179.2861 15.73897507085586
METEOR-M
1 35865U 09049A 10328.01857395 .00000176 00000-0 10000-3 0 8628
2 35865 098.7374 020.4998 0001738 275.5478 084.5492 14.21833183 61436
RS-38
1 35869U 09049E 10328.04280522 .00000177 00000-0 10000-3 0 8741
2 35869 098.7365 020.5652 0003899 266.8828 093.1898 14.21994215 61441
/EX
More information about the Keps
mailing list